Retour au catalogue

STARLINK-36620

ActifCommunicationsSSO
NORAD 67654·PAYLOAD·🇺🇸 United States

Lancé Feb 2, 2026 depuis Vandenberg Space Force Base

Loading…

Prochains Passages (prochaines 24 heures)

TLE

FraisSource: CelesTrak SupGP

Époque: Sep 15, 2026, 03:03 UTC

1 67654C 26022G   26258.12756944  .00017344  00000+0  53787-3 0  2580
2 67654  97.2840 289.7496 0001328  96.1935 228.3597 15.33461157    15

Suivez STARLINK-36620 en temps réel avec AllMySat

Download on the App Store